QPF
0.03 0.09 0.13 0.12 0.12 0.05 0.00 0.00 0.00 0.00 0.00 0.00 0.00 0.00 0.00 0.02 0.04 0.03 0.01 0.03 0.01 0.00 0.00 0.00 0.00 0.00 0.00 0.00 0.00 0.00 0.00 0.00 0.00 0.00 0.00 0.00 0.00 0.00 0.00 0.00 0.00 0.00 0.00 0.00 0.00 0.01 0.01 0.01 0.01
0.08 0.20 0.18 0.17 0.08 0.01 0.01 0.01 0.01 0.00 0.00 0.00 0.00 0.00 0.00 0.02 0.01 0.01 0.04 0.05 0.01 0.00 0.00 0.00 0.00 0.00 0.00 0.00 0.00 0.00 0.00 0.00 0.00 0.00 0.00 0.00 0.00 0.00 0.00 0.00 0.00 0.00 0.00 0.00 0.00 0.00 0.00 0.00 0.01
0.15 0.25 0.27 0.17 0.03 0.01 0.03 0.03 0.02 0.01 0.01 0.00 0.00 0.00 0.01 0.03 0.02 0.02 0.06 0.03 0.01 0.00 0.00 0.00 0.00 0.00 0.00 0.00 0.00 0.00 0.00 0.00 0.00 0.00 0.00 0.00 0.00 0.00 0.00 0.00 0.00 0.00 0.00 0.00 0.00 0.00 0.00 0.00 0.00
0.24 0.31 0.28 0.11 0.04 0.04 0.06 0.05 0.03 0.03 0.01 0.00 0.00 0.01 0.02 0.02 0.02 0.03 0.03 0.02 0.01 0.00 0.00 0.00 0.00 0.00 0.00 0.00 0.00 0.00 0.00 0.00 0.00 0.00 0.00 0.00 0.00 0.00 0.00 0.00 0.00 0.00 0.00 0.00 0.00 0.00 0.00 0.00 0.00
0.21 0.32 0.19 0.11 0.09 0.10 0.10 0.07 0.03 0.03 0.02 0.01 0.00 0.02 0.03 0.03 0.03 0.04 0.05 0.05 0.03 0.02 0.00 0.00 0.01 0.00 0.00 0.00 0.00 0.00 0.00 0.00 0.00 0.00 0.00 0.00 0.00 0.00 0.00 0.00 0.00 0.00 0.00 0.00 0.00 0.00 0.00 0.00 0.01
0.17 0.29 0.23 0.19 0.15 0.15 0.15 0.11 0.04 0.05 0.05 0.04 0.02 0.02 0.05 0.05 0.07 0.08 0.09 0.11 0.10 0.08 0.05 0.03 0.03 0.02 0.02 0.01 0.01 0.01 0.00 0.00 0.00 0.00 0.00 0.00 0.00 0.00 0.00 0.00 0.00 0.00 0.00 0.00 0.00 0.00 0.00 0.00 0.00
0.12 0.22 0.24 0.23 0.24 0.25 0.18 0.10 0.06 0.06 0.06 0.08 0.07 0.07 0.10 0.10 0.11 0.12 0.13 0.16 0.21 0.25 0.25 0.13 0.09 0.07 0.06 0.05 0.03 0.03 0.02 0.01 0.01 0.01 0.01 0.00 0.00 0.00 0.00 0.00 0.00 0.00 0.00 0.00 0.00 0.00 0.00 0.00 0.00
0.06 0.11 0.15 0.26 0.29 0.38 0.19 0.08 0.04 0.04 0.06 0.09 0.08 0.12 0.18 0.17 0.15 0.15 0.18 0.20 0.25 0.29 0.29 0.24 0.19 0.15 0.11 0.09 0.09 0.08 0.07 0.05 0.03 0.03 0.02 0.01 0.00 0.00 0.00 0.00 0.00 0.00 0.00 0.00 0.00 0.00 0.00 0.00 0.00
0.06 0.09 0.20 0.38 0.28 0.26 0.15 0.10 0.04 0.05 0.08 0.13 0.09 0.12 0.18 0.15 0.15 0.16 0.18 0.20 0.22 0.24 0.28 0.30 0.28 0.28 0.27 0.22 0.18 0.16 0.12 0.10 0.07 0.04 0.04 0.02 0.01 0.00 0.00 0.00 0.00 0.00 0.00 0.00 0.00 0.00 0.00 0.00 0.00
0.07 0.12 0.23 0.25 0.14 0.12 0.10 0.08 0.06 0.06 0.07 0.10 0.09 0.12 0.20 0.15 0.14 0.15 0.16 0.19 0.20 0.21 0.23 0.26 0.29 0.33 0.35 0.30 0.27 0.24 0.16 0.13 0.10 0.06 0.04 0.02 0.01 0.01 0.01 0.01 0.03 0.03 0.01 0.00 0.00 0.00 0.00 0.00 0.00
0.05 0.12 0.12 0.08 0.06 0.05 0.05 0.04 0.05 0.04 0.04 0.05 0.06 0.07 0.10 0.13 0.15 0.12 0.11 0.14 0.16 0.19 0.22 0.22 0.24 0.30 0.31 0.31 0.32 0.35 0.27 0.16 0.10 0.07 0.07 0.06 0.05 0.04 0.03 0.02 0.03 0.04 0.02 0.01 0.00 0.00 0.00 0.00 0.00
0.03 0.05 0.06 0.06 0.04 0.05 0.04 0.02 0.02 0.02 0.02 0.02 0.03 0.04 0.05 0.06 0.08 0.09 0.08 0.08 0.08 0.11 0.14 0.15 0.16 0.19 0.23 0.28 0.28 0.37 0.40 0.25 0.14 0.10 0.12 0.13 0.11 0.10 0.10 0.06 0.05 0.03 0.02 0.01 0.00 0.00 0.00 0.00 0.00
0.04 0.04 0.04 0.05 0.05 0.04 0.03 0.01 0.01 0.01 0.01 0.01 0.02 0.02 0.02 0.03 0.03 0.03 0.03 0.03 0.04 0.05 0.07 0.08 0.07 0.10 0.13 0.16 0.19 0.30 0.38 0.36 0.30 0.20 0.17 0.18 0.18 0.16 0.13 0.11 0.09 0.05 0.02 0.01 0.01 0.00 0.01 0.01 0.00
0.02 0.02 0.02 0.03 0.03 0.03 0.02 0.01 0.01 0.01 0.01 0.01 0.01 0.00 0.00 0.00 0.01 0.01 0.01 0.01 0.01 0.02 0.03 0.04 0.04 0.05 0.07 0.09 0.12 0.17 0.25 0.28 0.30 0.27 0.25 0.25 0.27 0.22 0.17 0.13 0.11 0.11 0.08 0.06 0.02 0.01 0.01 0.00 0.00
0.02 0.03 0.05 0.06 0.07 0.06 0.05 0.04 0.02 0.01 0.00 0.00 0.00 0.00 0.00 0.00 0.00 0.00 0.00 0.00 0.00 0.00 0.00 0.00 0.01 0.02 0.03 0.03 0.04 0.05 0.06 0.09 0.13 0.18 0.23 0.27 0.27 0.21 0.16 0.15 0.13 0.14 0.14 0.10 0.07 0.03 0.01 0.00 0.00
0.04 0.09 0.13 0.12 0.11 0.11 0.12 0.07 0.02 0.00 0.00 0.00 0.00 0.00 0.00 0.00 0.00 0.00 0.00 0.00 0.00 0.00 0.00 0.00 0.00 0.00 0.01 0.01 0.02 0.02 0.03 0.06 0.07 0.13 0.21 0.23 0.27 0.25 0.18 0.18 0.20 0.19 0.18 0.15 0.10 0.08 0.04 0.02 0.01
0.06 0.08 0.08 0.07 0.06 0.08 0.06 0.02 0.00 0.00 0.00 0.00 0.00 0.00 0.00 0.00 0.00 0.00 0.00 0.00 0.00 0.00 0.00 0.00 0.00 0.00 0.00 0.00 0.02 0.03 0.03 0.03 0.04 0.06 0.10 0.12 0.13 0.19 0.18 0.18 0.22 0.24 0.22 0.18 0.13 0.10 0.07 0.05 0.03
0.01 0.01 0.01 0.01 0.02 0.02 0.01 0.00 0.00 0.00 0.00 0.00 0.00 0.00 0.00 0.00 0.00 0.00 0.00 0.00 0.00 0.00 0.00 0.00 0.00 0.00 0.00 0.00 0.00 0.01 0.02 0.02 0.02 0.03 0.05 0.09 0.09 0.11 0.13 0.16 0.19 0.23 0.24 0.22 0.21 0.17 0.10 0.06 0.04
0.00 0.00 0.00 0.00 0.00 0.00 0.00 0.00 0.00 0.00 0.00 0.00 0.00 0.00 0.00 0.00 0.00 0.00 0.00 0.00 0.00 0.00 0.00 0.00 0.00 0.00 0.01 0.00 0.00 0.00 0.01 0.01 0.01 0.02 0.02 0.05 0.07 0.08 0.10 0.14 0.19 0.22 0.24 0.24 0.24 0.21 0.13 0.08 0.07
0.00 0.00 0.00 0.00 0.00 0.00 0.00 0.00 0.00 0.00 0.00 0.00 0.00 0.00 0.00 0.00 0.00 0.00 0.00 0.00 0.00 0.00 0.00 0.00 0.00 0.00 0.01 0.01 0.01 0.01 0.01 0.01 0.01 0.01 0.02 0.03 0.05 0.07 0.08 0.11 0.13 0.16 0.19 0.22 0.21 0.19 0.14 0.11 0.11
0.00 0.00 0.00 0.00 0.00 0.00 0.00 0.00 0.00 0.00 0.00 0.00 0.00 0.00 0.00 0.00 0.00 0.00 0.00 0.00 0.00 0.00 0.00 0.01 0.01 0.01 0.01 0.02 0.02 0.03 0.03 0.02 0.02 0.02 0.02 0.03 0.04 0.05 0.06 0.07 0.08 0.10 0.12 0.14 0.17 0.18 0.15 0.14 0.12
0.00 0.00 0.00 0.00 0.00 0.00 0.00 0.00 0.00 0.00 0.00 0.00 0.00 0.00 0.00 0.00 0.00 0.00 0.00 0.00 0.00 0.00 0.01 0.01 0.01 0.02 0.03 0.04 0.05 0.05 0.04 0.03 0.02 0.02 0.02 0.03 0.04 0.05 0.05 0.06 0.07 0.08 0.09 0.11 0.14 0.16 0.16 0.17 0.15
0.00 0.00 0.00 0.00 0.00 0.00 0.00 0.00 0.00 0.00 0.00 0.00 0.00 0.00 0.00 0.00 0.00 0.00 0.00 0.00 0.01 0.01 0.01 0.02 0.02 0.02 0.03 0.04 0.05 0.06 0.05 0.04 0.04 0.03 0.04 0.04 0.04 0.05 0.06 0.08 0.10 0.10 0.12 0.12 0.16 0.19 0.20 0.17 0.16
0.00 0.00 0.00 0.00 0.00 0.00 0.00 0.00 0.00 0.00 0.00 0.00 0.00 0.00 0.00 0.00 0.00 0.00 0.01 0.01 0.01 0.01 0.02 0.02 0.02 0.03 0.04 0.05 0.06 0.06 0.08 0.07 0.06 0.06 0.06 0.06 0.06 0.08 0.09 0.09 0.11 0.12 0.14 0.16 0.16 0.18 0.23 0.24 0.21
0.00 0.00 0.00 0.00 0.00 0.00 0.00 0.00 0.00 0.00 0.00 0.00 0.00 0.00 0.00 0.00 0.00 0.00 0.01 0.02 0.02 0.01 0.02 0.02 0.02 0.03 0.04 0.05 0.04 0.04 0.05 0.06 0.07 0.08 0.08 0.08 0.08 0.09 0.10 0.12 0.14 0.15 0.16 0.18 0.21 0.22 0.22 0.22 0.25
0.00 0.00 0.00 0.00 0.00 0.00 0.00 0.00 0.00 0.00 0.00 0.00 0.00 0.00 0.00 0.00 0.00 0.01 0.01 0.01 0.01 0.01 0.01 0.01 0.02 0.02 0.02 0.03 0.03 0.04 0.06 0.07 0.08 0.11 0.10 0.10 0.11 0.12 0.13 0.15 0.16 0.18 0.17 0.19 0.20 0.20 0.21 0.21 0.22
0.00 0.00 0.00 0.00 0.00 0.00 0.00 0.00 0.00 0.00 0.00 0.00 0.00 0.00 0.00 0.00 0.00 0.01 0.00 0.00 0.00 0.01 0.01 0.00 0.01 0.01 0.02 0.03 0.04 0.06 0.09 0.09 0.10 0.13 0.13 0.15 0.15 0.13 0.13 0.15 0.17 0.17 0.19 0.21 0.22 0.21 0.21 0.21 0.20
0.00 0.00 0.00 0.00 0.00 0.00 0.00 0.00 0.00 0.00 0.00 0.00 0.00 0.00 0.00 0.00 0.00 0.00 0.00 0.00 0.00 0.00 0.01 0.00 0.01 0.01 0.01 0.02 0.04 0.07 0.08 0.08 0.09 0.14 0.14 0.16 0.18 0.16 0.16 0.17 0.16 0.17 0.17 0.19 0.20 0.18 0.15 0.16 0.18
0.00 0.00 0.00 0.00 0.00 0.00 0.00 0.00 0.00 0.00 0.00 0.00 0.00 0.00 0.00 0.00 0.00 0.00 0.00 0.00 0.00 0.00 0.00 0.00 0.00 0.01 0.01 0.02 0.04 0.06 0.06 0.06 0.07 0.10 0.10 0.10 0.12 0.12 0.14 0.16 0.13 0.15 0.15 0.14 0.14 0.13 0.14 0.11 0.13
0.00 0.00 0.00 0.00 0.00 0.00 0.00 0.00 0.00 0.00 0.00 0.00 0.00 0.00 0.00 0.00 0.00 0.00 0.00 0.00 0.00 0.00 0.00 0.00 0.00 0.00 0.01 0.02 0.03 0.04 0.04 0.04 0.05 0.05 0.04 0.04 0.04 0.05 0.09 0.09 0.07 0.08 0.10 0.11 0.12 0.12 0.10 0.09 0.08
MSLP
1011.23 1012.53 1013.99 1015.42 1016.62 1017.44 1017.79 1017.71 1017.27 1016.65 1016.03 1015.57 1015.34 1015.36 1015.59 1015.90 1016.18 1016.32 1016.25 1015.99 1015.58 1015.13 1014.72 1014.45 1014.34 1014.40 1014.58 1014.81 1015.04 1015.21 1015.32 1015.36 1015.38 1015.41 1015.47 1015.58 1015.74 1015.91 1016.07 1016.19 1016.27 1016.31 1016.31 1016.31 1016.32 1016.34 1016.39 1016.45 1016.49
1011.72 1013.25 1014.85 1016.31 1017.44 1018.10 1018.25 1017.93 1017.28 1016.48 1015.73 1015.18 1014.92 1014.93 1015.15 1015.45 1015.72 1015.84 1015.77 1015.52 1015.15 1014.76 1014.43 1014.24 1014.22 1014.35 1014.58 1014.84 1015.09 1015.27 1015.39 1015.44 1015.48 1015.52 1015.60 1015.72 1015.87 1016.01 1016.14 1016.22 1016.25 1016.24 1016.22 1016.21 1016.23 1016.27 1016.35 1016.42 1016.50
1012.33 1014.02 1015.69 1017.12 1018.14 1018.62 1018.57 1018.07 1017.27 1016.37 1015.57 1015.01 1014.75 1014.77 1014.98 1015.26 1015.48 1015.54 1015.43 1015.16 1014.80 1014.45 1014.19 1014.08 1014.14 1014.33 1014.60 1014.89 1015.14 1015.32 1015.43 1015.49 1015.53 1015.59 1015.69 1015.81 1015.95 1016.08 1016.17 1016.21 1016.20 1016.16 1016.12 1016.11 1016.13 1016.20 1016.29 1016.40 1016.49
1013.01 1014.78 1016.44 1017.79 1018.67 1019.00 1018.81 1018.19 1017.33 1016.43 1015.67 1015.16 1014.95 1014.98 1015.18 1015.39 1015.53 1015.50 1015.31 1014.98 1014.61 1014.28 1014.07 1014.02 1014.14 1014.37 1014.66 1014.94 1015.17 1015.32 1015.41 1015.45 1015.50 1015.57 1015.68 1015.83 1015.98 1016.10 1016.18 1016.19 1016.16 1016.10 1016.05 1016.04 1016.07 1016.16 1016.28 1016.40 1016.51
1013.70 1015.47 1017.07 1018.31 1019.06 1019.27 1018.99 1018.35 1017.53 1016.72 1016.08 1015.68 1015.54 1015.60 1015.75 1015.88 1015.90 1015.75 1015.44 1015.04 1014.63 1014.30 1014.12 1014.10 1014.24 1014.48 1014.75 1014.99 1015.16 1015.26 1015.30 1015.31 1015.35 1015.44 1015.58 1015.75 1015.93 1016.07 1016.16 1016.18 1016.14 1016.09 1016.04 1016.04 1016.09 1016.19 1016.33 1016.46 1016.58
1014.35 1016.07 1017.57 1018.68 1019.31 1019.45 1019.17 1018.59 1017.90 1017.25 1016.77 1016.51 1016.46 1016.53 1016.64 1016.66 1016.53 1016.24 1015.81 1015.32 1014.86 1014.52 1014.34 1014.33 1014.46 1014.67 1014.88 1015.04 1015.12 1015.13 1015.10 1015.08 1015.11 1015.21 1015.38 1015.60 1015.82 1016.00 1016.12 1016.17 1016.16 1016.12 1016.09 1016.10 1016.17 1016.29 1016.43 1016.57 1016.68
1014.94 1016.56 1017.93 1018.92 1019.46 1019.58 1019.34 1018.90 1018.38 1017.94 1017.66 1017.55 1017.57 1017.64 1017.68 1017.58 1017.31 1016.88 1016.33 1015.77 1015.27 1014.91 1014.72 1014.70 1014.79 1014.93 1015.04 1015.09 1015.06 1014.97 1014.87 1014.80 1014.82 1014.93 1015.14 1015.40 1015.67 1015.91 1016.07 1016.16 1016.18 1016.17 1016.17 1016.20 1016.28 1016.41 1016.55 1016.69 1016.79
1015.46 1016.95 1018.18 1019.05 1019.53 1019.66 1019.52 1019.23 1018.92 1018.69 1018.59 1018.60 1018.67 1018.73 1018.68 1018.47 1018.08 1017.53 1016.90 1016.29 1015.77 1015.40 1015.21 1015.15 1015.19 1015.24 1015.25 1015.18 1015.03 1014.83 1014.65 1014.54 1014.54 1014.66 1014.90 1015.20 1015.51 1015.79 1015.99 1016.12 1016.17 1016.19 1016.22 1016.28 1016.37 1016.50 1016.64 1016.76 1016.85
1015.89 1017.25 1018.34 1019.11 1019.56 1019.72 1019.68 1019.55 1019.43 1019.37 1019.41 1019.51 1019.60 1019.62 1019.49 1019.18 1018.69 1018.07 1017.41 1016.79 1016.28 1015.93 1015.74 1015.66 1015.63 1015.59 1015.49 1015.30 1015.04 1014.75 1014.50 1014.34 1014.32 1014.45 1014.70 1015.01 1015.35 1015.64 1015.87 1016.01 1016.10 1016.14 1016.19 1016.27 1016.38 1016.51 1016.65 1016.76 1016.83
1016.26 1017.49 1018.46 1019.14 1019.55 1019.75 1019.81 1019.81 1019.83 1019.90 1020.02 1020.15 1020.23 1020.19 1019.98 1019.60 1019.06 1018.42 1017.78 1017.20 1016.74 1016.42 1016.24 1016.14 1016.07 1015.94 1015.74 1015.45 1015.09 1014.73 1014.42 1014.23 1014.19 1014.30 1014.54 1014.85 1015.17 1015.46 1015.68 1015.82 1015.91 1015.98 1016.05 1016.14 1016.26 1016.41 1016.55 1016.66 1016.73
1016.58 1017.69 1018.55 1019.16 1019.55 1019.78 1019.91 1020.01 1020.12 1020.25 1020.40 1020.51 1020.53 1020.42 1020.14 1019.71 1019.17 1018.57 1017.98 1017.48 1017.09 1016.83 1016.68 1016.56 1016.44 1016.24 1015.96 1015.59 1015.17 1014.76 1014.42 1014.20 1014.14 1014.22 1014.42 1014.69 1014.96 1015.21 1015.40 1015.53 1015.61 1015.69 1015.77 1015.89 1016.03 1016.19 1016.34 1016.46 1016.53
1016.87 1017.87 1018.64 1019.19 1019.57 1019.82 1020.00 1020.15 1020.30 1020.44 1020.56 1020.61 1020.56 1020.38 1020.05 1019.61 1019.08 1018.55 1018.05 1017.64 1017.34 1017.14 1017.00 1016.87 1016.70 1016.45 1016.11 1015.69 1015.23 1014.80 1014.44 1014.21 1014.12 1014.16 1014.31 1014.50 1014.71 1014.89 1015.03 1015.13 1015.21 1015.29 1015.40 1015.55 1015.72 1015.90 1016.06 1016.19 1016.26
1017.17 1018.07 1018.76 1019.27 1019.63 1019.90 1020.11 1020.29 1020.44 1020.56 1020.62 1020.59 1020.45 1020.20 1019.84 1019.40 1018.92 1018.46 1018.06 1017.75 1017.52 1017.35 1017.21 1017.06 1016.84 1016.54 1016.15 1015.70 1015.23 1014.80 1014.45 1014.21 1014.09 1014.09 1014.16 1014.27 1014.40 1014.50 1014.59 1014.66 1014.74 1014.84 1014.98 1015.16 1015.36 1015.57 1015.75 1015.88 1015.96
1017.49 1018.30 1018.92 1019.40 1019.76 1020.04 1020.28 1020.47 1020.61 1020.68 1020.67 1020.57 1020.35 1020.04 1019.66 1019.23 1018.81 1018.42 1018.10 1017.85 1017.65 1017.49 1017.32 1017.11 1016.84 1016.48 1016.06 1015.60 1015.14 1014.73 1014.39 1014.15 1014.01 1013.95 1013.96 1013.99 1014.03 1014.06 1014.10 1014.16 1014.25 1014.38 1014.57 1014.79 1015.03 1015.26 1015.46 1015.59 1015.67
1017.86 1018.57 1019.13 1019.58 1019.95 1020.26 1020.52 1020.72 1020.86 1020.90 1020.83 1020.66 1020.39 1020.04 1019.64 1019.24 1018.85 1018.52 1018.24 1018.00 1017.80 1017.60 1017.37 1017.08 1016.73 1016.32 1015.87 1015.40 1014.96 1014.58 1014.26 1014.03 1013.87 1013.76 1013.70 1013.65 1013.62 1013.61 1013.62 1013.68 1013.80 1013.98 1014.21 1014.48 1014.76 1015.02 1015.22 1015.35 1015.41
1018.26 1018.87 1019.37 1019.80 1020.18 1020.53 1020.83 1021.07 1021.21 1021.23 1021.13 1020.92 1020.61 1020.24 1019.84 1019.45 1019.09 1018.78 1018.50 1018.25 1017.99 1017.71 1017.38 1017.00 1016.56 1016.09 1015.61 1015.15 1014.73 1014.38 1014.09 1013.86 1013.68 1013.54 1013.41 1013.31 1013.22 1013.17 1013.18 1013.26 1013.42 1013.65 1013.94 1014.26 1014.57 1014.84 1015.04 1015.16 1015.21
1018.67 1019.18 1019.62 1020.04 1020.45 1020.84 1021.20 1021.47 1021.63 1021.66 1021.55 1021.31 1020.98 1020.60 1020.21 1019.83 1019.49 1019.17 1018.87 1018.57 1018.23 1017.85 1017.40 1016.91 1016.39 1015.86 1015.35 1014.90 1014.51 1014.18 1013.92 1013.70 1013.50 1013.32 1013.15 1012.99 1012.86 1012.80 1012.81 1012.91 1013.11 1013.40 1013.74 1014.09 1014.42 1014.70 1014.90 1015.01 1015.04
1019.05 1019.46 1019.86 1020.28 1020.72 1021.17 1021.58 1021.90 1022.09 1022.12 1022.01 1021.76 1021.43 1021.05 1020.66 1020.29 1019.95 1019.62 1019.29 1018.92 1018.50 1018.01 1017.46 1016.87 1016.26 1015.69 1015.17 1014.72 1014.36 1014.06 1013.81 1013.59 1013.38 1013.16 1012.94 1012.74 1012.58 1012.50 1012.51 1012.64 1012.87 1013.19 1013.56 1013.94 1014.28 1014.56 1014.75 1014.85 1014.87
1019.38 1019.71 1020.07 1020.51 1020.99 1021.49 1021.95 1022.30 1022.51 1022.55 1022.42 1022.17 1021.83 1021.45 1021.07 1020.71 1020.37 1020.03 1019.66 1019.25 1018.75 1018.18 1017.55 1016.89 1016.23 1015.63 1015.10 1014.67 1014.33 1014.05 1013.82 1013.59 1013.36 1013.10 1012.83 1012.59 1012.39 1012.28 1012.27 1012.40 1012.64 1012.97 1013.35 1013.73 1014.07 1014.34 1014.53 1014.63 1014.67
1019.62 1019.91 1020.28 1020.74 1021.27 1021.82 1022.31 1022.68 1022.88 1022.89 1022.73 1022.45 1022.09 1021.69 1021.32 1020.96 1020.64 1020.30 1019.93 1019.49 1018.96 1018.35 1017.68 1016.98 1016.31 1015.70 1015.18 1014.77 1014.45 1014.18 1013.95 1013.71 1013.44 1013.14 1012.82 1012.52 1012.27 1012.11 1012.07 1012.17 1012.39 1012.69 1013.05 1013.41 1013.74 1014.00 1014.19 1014.31 1014.39
1019.81 1020.09 1020.50 1021.02 1021.60 1022.18 1022.67 1023.02 1023.18 1023.12 1022.90 1022.55 1022.14 1021.73 1021.34 1021.00 1020.70 1020.39 1020.04 1019.62 1019.10 1018.50 1017.83 1017.14 1016.47 1015.88 1015.39 1015.00 1014.69 1014.43 1014.19 1013.93 1013.62 1013.27 1012.89 1012.52 1012.20 1011.98 1011.87 1011.91 1012.06 1012.31 1012.62 1012.93 1013.23 1013.48 1013.68 1013.84 1013.98
1019.97 1020.31 1020.79 1021.38 1022.01 1022.61 1023.08 1023.37 1023.44 1023.28 1022.95 1022.51 1022.02 1021.56 1021.16 1020.83 1020.56 1020.29 1020.00 1019.63 1019.16 1018.60 1017.98 1017.33 1016.70 1016.14 1015.68 1015.30 1015.01 1014.75 1014.49 1014.20 1013.85 1013.44 1013.00 1012.56 1012.16 1011.85 1011.66 1011.60 1011.66 1011.82 1012.05 1012.30 1012.56 1012.80 1013.02 1013.22 1013.43
1020.17 1020.61 1021.20 1021.87 1022.55 1023.15 1023.57 1023.77 1023.71 1023.41 1022.94 1022.38 1021.80 1021.28 1020.85 1020.53 1020.29 1020.08 1019.85 1019.55 1019.16 1018.68 1018.12 1017.53 1016.95 1016.43 1015.99 1015.63 1015.34 1015.07 1014.79 1014.47 1014.08 1013.62 1013.12 1012.61 1012.13 1011.73 1011.43 1011.26 1011.21 1011.26 1011.39 1011.57 1011.77 1011.99 1012.22 1012.47 1012.75
1020.46 1021.03 1021.73 1022.49 1023.21 1023.79 1024.15 1024.22 1024.02 1023.56 1022.94 1022.24 1021.56 1020.96 1020.50 1020.18 1019.98 1019.82 1019.66 1019.45 1019.14 1018.73 1018.24 1017.71 1017.18 1016.70 1016.27 1015.92 1015.62 1015.34 1015.04 1014.70 1014.28 1013.79 1013.24 1012.67 1012.13 1011.64 1011.24 1010.95 1010.78 1010.71 1010.73 1010.82 1010.96 1011.15 1011.38 1011.66 1011.99
1020.85 1021.56 1022.37 1023.21 1023.94 1024.49 1024.76 1024.71 1024.36 1023.75 1022.98 1022.15 1021.37 1020.71 1020.22 1019.90 1019.71 1019.60 1019.50 1019.35 1019.12 1018.78 1018.35 1017.87 1017.37 1016.91 1016.49 1016.14 1015.82 1015.53 1015.22 1014.86 1014.43 1013.93 1013.36 1012.76 1012.16 1011.61 1011.12 1010.73 1010.44 1010.26 1010.17 1010.16 1010.23 1010.37 1010.57 1010.85 1011.20
1021.31 1022.14 1023.04 1023.92 1024.65 1025.15 1025.32 1025.16 1024.68 1023.94 1023.05 1022.12 1021.27 1020.57 1020.05 1019.72 1019.55 1019.47 1019.41 1019.30 1019.11 1018.82 1018.43 1017.98 1017.51 1017.05 1016.64 1016.27 1015.95 1015.65 1015.34 1014.98 1014.56 1014.07 1013.51 1012.90 1012.28 1011.68 1011.14 1010.66 1010.28 1009.99 1009.79 1009.69 1009.68 1009.75 1009.90 1010.15 1010.48
1021.79 1022.68 1023.62 1024.50 1025.21 1025.63 1025.72 1025.46 1024.88 1024.06 1023.10 1022.12 1021.24 1020.51 1019.99 1019.66 1019.50 1019.43 1019.38 1019.30 1019.13 1018.86 1018.50 1018.06 1017.60 1017.15 1016.73 1016.36 1016.03 1015.73 1015.42 1015.09 1014.69 1014.23 1013.70 1013.12 1012.51 1011.90 1011.32 1010.79 1010.34 1009.96 1009.68 1009.48 1009.38 1009.37 1009.45 1009.63 1009.90
1022.18 1023.09 1024.02 1024.84 1025.48 1025.82 1025.83 1025.50 1024.87 1024.01 1023.05 1022.08 1021.21 1020.50 1019.99 1019.67 1019.50 1019.43 1019.39 1019.30 1019.14 1018.88 1018.53 1018.11 1017.66 1017.22 1016.80 1016.43 1016.10 1015.81 1015.52 1015.21 1014.86 1014.44 1013.96 1013.43 1012.85 1012.26 1011.68 1011.13 1010.63 1010.19 1009.84 1009.56 1009.37 1009.27 1009.26 1009.34 1009.52
1022.41 1023.26 1024.11 1024.84 1025.37 1025.62 1025.56 1025.19 1024.55 1023.72 1022.81 1021.90 1021.10 1020.44 1019.97 1019.67 1019.51 1019.43 1019.38 1019.28 1019.12 1018.87 1018.54 1018.14 1017.71 1017.29 1016.89 1016.53 1016.22 1015.94 1015.67 1015.39 1015.08 1014.71 1014.29 1013.81 1013.28 1012.73 1012.17 1011.63 1011.11 1010.64 1010.24 1009.90 1009.63 1009.44 1009.34 1009.32 1009.38
1022.43 1023.18 1023.89 1024.48 1024.87 1025.02 1024.90 1024.52 1023.92 1023.16 1022.35 1021.55 1020.85 1020.28 1019.86 1019.60 1019.45 1019.36 1019.29 1019.20 1019.04 1018.81 1018.50 1018.15 1017.77 1017.38 1017.02 1016.70 1016.41 1016.14 1015.90 1015.64 1015.35 1015.02 1014.65 1014.22 1013.74 1013.24 1012.72 1012.20 1011.69 1011.22 1010.79 1010.41 1010.09 1009.83 1009.65 1009.53 1009.48
Thickness
5830 5828 5824 5811 5787 5770 5768 5781 5792 5795 5797 5806 5810 5803 5791 5783 5776 5767 5791 5797 5795 5792 5789 5788 5787 5786 5784 5783 5782 5781 5780 5779 5777 5776 5775 5774 5773 5772 5771 5770 5769 5769 5768 5767 5767 5766 5766 5766 5766
5831 5827 5816 5800 5773 5754 5764 5783 5788 5795 5804 5811 5810 5803 5794 5787 5792 5788 5791 5794 5795 5792 5789 5788 5786 5785 5784 5783 5782 5781 5780 5779 5778 5776 5775 5774 5773 5772 5771 5770 5769 5768 5767 5766 5766 5765 5765 5765 5765
5832 5826 5804 5787 5772 5761 5767 5784 5792 5802 5811 5810 5801 5800 5792 5786 5793 5791 5794 5796 5794 5791 5789 5787 5786 5785 5784 5782 5781 5780 5779 5778 5777 5776 5775 5774 5773 5772 5771 5770 5769 5768 5767 5766 5765 5765 5764 5764 5764
5828 5812 5798 5779 5769 5777 5781 5788 5797 5799 5802 5805 5799 5788 5791 5798 5798 5797 5797 5797 5794 5791 5789 5787 5785 5784 5783 5782 5781 5779 5778 5777 5776 5775 5774 5773 5772 5771 5770 5769 5768 5767 5766 5766 5765 5764 5764 5763 5763
5823 5800 5778 5767 5770 5779 5786 5793 5799 5792 5791 5793 5793 5779 5780 5795 5801 5800 5797 5796 5793 5790 5788 5786 5785 5783 5782 5781 5779 5778 5777 5776 5774 5774 5773 5772 5771 5770 5769 5769 5768 5767 5766 5765 5764 5764 5763 5763 5762
5807 5790 5764 5755 5763 5775 5782 5789 5792 5786 5784 5786 5785 5776 5774 5788 5793 5792 5794 5792 5791 5788 5785 5784 5783 5782 5780 5779 5777 5776 5775 5774 5773 5772 5771 5771 5770 5769 5768 5768 5767 5766 5765 5765 5764 5763 5763 5762 5762
5800 5781 5764 5759 5759 5765 5778 5787 5781 5776 5775 5776 5782 5771 5770 5778 5785 5788 5788 5787 5786 5783 5781 5780 5779 5778 5777 5777 5776 5775 5774 5773 5772 5771 5770 5769 5769 5768 5767 5767 5766 5765 5765 5764 5763 5763 5762 5762 5762
5810 5782 5763 5758 5757 5760 5776 5784 5779 5774 5769 5777 5776 5762 5758 5768 5778 5782 5782 5780 5778 5777 5775 5775 5774 5773 5772 5772 5772 5772 5771 5771 5770 5770 5769 5768 5767 5767 5766 5766 5765 5765 5764 5764 5763 5762 5762 5762 5761
5811 5772 5755 5758 5759 5762 5772 5774 5773 5772 5768 5767 5766 5763 5763 5770 5773 5773 5771 5770 5769 5769 5769 5769 5769 5768 5767 5768 5768 5769 5769 5768 5768 5768 5768 5767 5766 5765 5765 5764 5764 5764 5763 5763 5762 5762 5762 5761 5761
5797 5764 5765 5774 5773 5766 5766 5765 5765 5757 5753 5753 5755 5759 5764 5765 5765 5762 5759 5757 5758 5759 5761 5762 5764 5763 5763 5764 5765 5766 5766 5766 5765 5765 5766 5766 5765 5764 5763 5763 5763 5763 5762 5762 5762 5761 5761 5761 5761
5794 5773 5775 5777 5776 5771 5762 5756 5758 5748 5738 5741 5743 5747 5753 5755 5755 5752 5750 5750 5751 5752 5754 5756 5757 5758 5759 5760 5761 5762 5762 5762 5762 5762 5763 5763 5762 5761 5761 5761 5761 5761 5761 5761 5761 5760 5760 5760 5760
5786 5779 5779 5774 5776 5768 5759 5753 5745 5741 5738 5745 5746 5746 5745 5744 5743 5742 5742 5742 5744 5745 5747 5748 5750 5752 5753 5754 5755 5756 5757 5758 5758 5759 5759 5759 5759 5759 5759 5760 5760 5760 5760 5760 5760 5759 5759 5759 5760
5780 5772 5772 5770 5766 5759 5754 5745 5739 5735 5740 5742 5741 5739 5736 5735 5734 5735 5736 5736 5736 5736 5738 5740 5742 5743 5745 5746 5748 5750 5752 5753 5754 5755 5756 5757 5756 5756 5757 5757 5758 5759 5759 5758 5758 5757 5757 5758 5758
5781 5773 5766 5764 5760 5753 5744 5737 5733 5729 5735 5733 5729 5727 5726 5725 5725 5725 5725 5725 5725 5727 5728 5731 5733 5735 5736 5738 5740 5743 5745 5747 5749 5750 5752 5753 5753 5753 5754 5754 5754 5755 5756 5756 5756 5756 5756 5757 5758
5782 5763 5754 5753 5751 5745 5741 5721 5720 5726 5728 5721 5718 5717 5716 5715 5715 5713 5713 5714 5715 5716 5718 5721 5724 5725 5726 5728 5731 5735 5737 5740 5743 5745 5747 5748 5749 5750 5752 5752 5752 5753 5753 5753 5753 5754 5754 5755 5756
5767 5749 5736 5743 5746 5742 5728 5701 5715 5721 5716 5708 5706 5704 5703 5703 5704 5705 5705 5705 5706 5707 5708 5711 5714 5715 5717 5719 5721 5725 5728 5732 5735 5738 5741 5743 5745 5747 5748 5748 5749 5750 5750 5750 5750 5751 5751 5752 5753
5746 5732 5728 5732 5740 5733 5717 5699 5708 5712 5707 5697 5694 5692 5691 5691 5693 5695 5696 5696 5697 5698 5698 5700 5703 5705 5707 5709 5712 5715 5718 5722 5726 5730 5733 5736 5739 5742 5743 5744 5745 5746 5747 5747 5747 5747 5747 5748 5749
5734 5730 5725 5722 5728 5721 5704 5695 5699 5702 5698 5689 5684 5682 5681 5681 5682 5685 5686 5687 5688 5689 5690 5692 5693 5695 5697 5700 5702 5704 5707 5711 5716 5720 5724 5728 5731 5734 5736 5739 5741 5742 5742 5742 5742 5742 5743 5744 5745
5744 5731 5720 5721 5728 5711 5696 5688 5690 5692 5687 5680 5675 5673 5672 5672 5674 5676 5677 5678 5679 5680 5681 5682 5684 5686 5687 5689 5690 5692 5695 5700 5705 5711 5715 5719 5723 5727 5729 5732 5735 5736 5737 5738 5737 5737 5736 5738 5740
5737 5721 5714 5718 5724 5706 5686 5681 5684 5684 5680 5676 5670 5667 5666 5665 5665 5666 5667 5668 5669 5670 5672 5674 5675 5677 5679 5681 5682 5684 5687 5691 5695 5700 5705 5710 5714 5718 5722 5725 5728 5730 5731 5732 5732 5732 5731 5732 5734
5726 5718 5713 5709 5710 5699 5681 5669 5672 5675 5675 5672 5668 5665 5662 5661 5658 5658 5660 5660 5661 5663 5664 5666 5667 5669 5671 5674 5676 5678 5680 5682 5685 5689 5694 5699 5704 5709 5714 5718 5720 5723 5726 5727 5728 5728 5727 5725 5727
5717 5726 5721 5712 5692 5677 5678 5650 5661 5664 5663 5662 5660 5658 5656 5655 5654 5654 5654 5655 5656 5657 5659 5661 5662 5663 5665 5667 5667 5667 5668 5670 5675 5679 5684 5689 5695 5700 5705 5710 5713 5716 5719 5721 5723 5725 5725 5723 5720
5724 5730 5720 5709 5694 5679 5673 5653 5651 5659 5653 5654 5655 5656 5654 5654 5652 5652 5652 5652 5653 5654 5655 5656 5657 5658 5659 5661 5661 5661 5662 5665 5668 5672 5676 5681 5686 5692 5697 5702 5705 5709 5712 5715 5717 5719 5720 5720 5718
5730 5717 5705 5690 5677 5663 5671 5654 5647 5649 5654 5655 5655 5654 5653 5652 5652 5651 5651 5651 5651 5652 5652 5652 5651 5652 5654 5655 5656 5657 5657 5659 5661 5664 5667 5672 5677 5683 5688 5693 5698 5701 5705 5708 5711 5713 5714 5715 5715
5715 5688 5668 5663 5652 5655 5670 5656 5650 5660 5663 5660 5656 5654 5654 5653 5651 5650 5650 5649 5648 5649 5649 5648 5648 5648 5649 5650 5651 5652 5653 5654 5655 5657 5660 5664 5669 5674 5679 5685 5689 5693 5698 5701 5704 5706 5707 5709 5709
5709 5689 5664 5653 5648 5652 5662 5653 5654 5668 5667 5664 5661 5657 5656 5654 5653 5651 5650 5649 5648 5647 5647 5646 5646 5645 5646 5646 5646 5648 5649 5650 5651 5653 5655 5658 5662 5667 5672 5676 5681 5685 5689 5693 5696 5698 5700 5703 5704
5706 5692 5687 5665 5663 5652 5653 5655 5661 5668 5664 5662 5660 5658 5656 5655 5655 5653 5652 5650 5649 5647 5647 5646 5645 5643 5643 5643 5644 5644 5645 5646 5647 5649 5651 5654 5657 5661 5664 5668 5672 5676 5680 5684 5688 5690 5693 5696 5697
5714 5701 5678 5668 5656 5646 5654 5653 5648 5659 5660 5661 5660 5658 5658 5658 5657 5655 5653 5651 5650 5648 5647 5646 5645 5643 5642 5642 5642 5643 5642 5643 5644 5645 5646 5648 5651 5654 5657 5659 5663 5667 5671 5675 5679 5682 5685 5688 5690
5706 5698 5679 5664 5657 5646 5641 5650 5671 5668 5667 5664 5663 5663 5662 5661 5659 5657 5655 5654 5652 5650 5648 5646 5645 5643 5642 5641 5640 5640 5640 5641 5641 5641 5642 5643 5645 5647 5649 5652 5654 5658 5662 5666 5670 5674 5677 5679 5681
5712 5701 5683 5667 5662 5654 5643 5653 5685 5678 5675 5671 5669 5669 5668 5666 5663 5661 5658 5656 5654 5651 5649 5647 5645 5643 5642 5640 5639 5638 5638 5638 5637 5637 5638 5639 5639 5641 5642 5644 5647 5650 5654 5657 5661 5665 5669 5670 5672